Darstellungsparameter: Aktuell verwendete Einstellungen:
Skalierung der Graphiken ... ?
xyx+y,   Skalierungsfaktor:      Skalierung: Modus: x, Faktor: 1
Darstellungszeitraum ... ?
Vom - - bis: - -   Zeitraum: 30.09.2015 - 29.09.2016
Min/Max/Avg-Anzeige ... ?
Zeige MMA aktuell
Zeige MMA Monat
Zeige MMA alles
Zeige --A aktuell
Zeige --A Monat
Zeige --A alles
Keine MMA-Anzeige
MMA:
Average (ber die Originaldaten)
MMA-Basis: 30.09.2015 - 29.09.2016
Quicknavigation für Darstellung... ?
Tage:      1T, 2T, 3T, 5T -1T -2T -3T -5T +1T +2T +3T +5T
Wochen: 1W, 2W, 3W -1W -2W -3W +1W +2W +3W
Monate: 1M, 3M, 6M -1M -3M -6M +1M +3M +6M
Jahre:    1J, 3J, 5J, 10J -1J -3J -5J -10J +1J +3J +5J +10J
Nutze für die Darstellung ... ?
Originaldaten oder ...
Mittelwerte Minima Maxima auf...
Stundenbasis Tagesbasis Wochenbasis
Monatsbasis Jahresbasis      Datenbasis: Mittelwerte auf Tagesbasis
Darstellen als:
Statistik (Auto) Statistik J:M      Darstellung:
Zur Graphik,    zurück zur Übersicht aller Sensoren.
 
Tabellarische Datenbersicht: ?
 
Sensor: Nr:Datum:Temp:Abs-Feuchte:Windchill:Wind:
Aussen-T/F 1 30-09-2015 00:00:00 10.73368 C 7.67 g/m*3 10.73 C 3.43715 km/h
2 01-10-2015 00:00:00 9.88646 C 6.98 g/m*3 9.89 C 3.38507 km/h
3 02-10-2015 00:00:00 9.21528 C 7.62 g/m*3 9.22 C 0.94618 km/h
4 03-10-2015 00:00:00 11.40139 C 8.82 g/m*3 11.4 C 1.27222 km/h
5 04-10-2015 00:00:00 12.61562 C 10.13 g/m*3 12.62 C 1.9809 km/h
6 05-10-2015 00:00:00 11.96597 C 9.83 g/m*3 11.97 C 1.7125 km/h
7 06-10-2015 00:00:00 15.93854 C 12.94 g/m*3 15.94 C 0.42917 km/h
8 07-10-2015 00:00:00 14.99028 C 11.46 g/m*3 14.99 C 5.1559 km/h
9 08-10-2015 00:00:00 13.45521 C 10.14 g/m*3 13.46 C 2.19653 km/h
10 09-10-2015 00:00:00 12.29618 C 10.14 g/m*3 12.3 C 0 km/h
11 10-10-2015 00:00:00 12.19271 C 9.48 g/m*3 12.19 C 0.57431 km/h
12 11-10-2015 00:00:00 8.37431 C 6.51 g/m*3 8.37 C 1.58021 km/h
13 12-10-2015 00:00:00 5.28229 C 5.72 g/m*3 5.28 C 0.71736 km/h
14 13-10-2015 00:00:00 4.33542 C 5.86 g/m*3 4.34 C 1.61458 km/h
15 14-10-2015 00:00:00 3.63333 C 5.89 g/m*3 3.63 C 0.71146 km/h
16 15-10-2015 00:00:00 4.25694 C 6.16 g/m*3 4.26 C 1.93507 km/h
17 16-10-2015 00:00:00 6.52431 C 6.94 g/m*3 6.52 C 1.46458 km/h
18 17-10-2015 00:00:00 6.99375 C 6.93 g/m*3 6.99 C 1 km/h
19 18-10-2015 00:00:00 7.25556 C 7.17 g/m*3 7.26 C 0.95 km/h
20 19-10-2015 00:00:00 8.22361 C 7.69 g/m*3 8.22 C 1.03958 km/h
21 20-10-2015 00:00:00 9.33576 C 8.46 g/m*3 9.34 C 0.45069 km/h
22 21-10-2015 00:00:00 9.83611 C 8.52 g/m*3 9.84 C 1.21667 km/h
23 22-10-2015 00:00:00 11.18472 C 8.96 g/m*3 11.18 C 8.28507 km/h
24 23-10-2015 00:00:00 10.26979 C 9.08 g/m*3 10.27 C 0.17222 km/h
25 24-10-2015 00:00:00 11.03438 C 9 g/m*3 11.03 C 0.73368 km/h
Sensor: Nr:Datum:Temp:Abs-Feuchte:Windchill:Wind:
Aussen-T/F 26 25-10-2015 00:00:00 11.68229 C 9.68 g/m*3 11.68 C 0.58889 km/h
27 26-10-2015 00:00:00 9.55312 C 8.65 g/m*3 9.55 C 0.28889 km/h
28 27-10-2015 00:00:00 8.10278 C 7.88 g/m*3 8.1 C 1.62569 km/h
29 28-10-2015 00:00:00 9.54444 C 8.36 g/m*3 9.54 C 1.79028 km/h
30 29-10-2015 00:00:00 10.48299 C 8.97 g/m*3 10.48 C 1.20903 km/h
31 30-10-2015 00:00:00 7.79965 C 7.82 g/m*3 7.8 C 0.28889 km/h
32 31-10-2015 00:00:00 7.27118 C 7.41 g/m*3 7.27 C 0.64479 km/h
33 01-11-2015 00:00:00 6.57708 C 7.25 g/m*3 6.58 C 0.75556 km/h
34 02-11-2015 00:00:00 4.67431 C 6.43 g/m*3 4.67 C 1.35556 km/h
35 03-11-2015 00:00:00 4.99896 C 6.47 g/m*3 5 C 1.56806 km/h
36 04-11-2015 00:00:00 7.79549 C 7.68 g/m*3 7.8 C 0.67847 km/h
37 05-11-2015 00:00:00 10.38299 C 9.17 g/m*3 10.38 C 1.47778 km/h
38 06-11-2015 00:00:00 13.31493 C 10.74 g/m*3 13.31 C 2.45069 km/h
39 07-11-2015 00:00:00 16.40417 C 13.14 g/m*3 16.4 C 3.42743 km/h
40 08-11-2015 00:00:00 12.97292 C 10.78 g/m*3 12.97 C 0.76736 km/h
41 09-11-2015 00:00:00 14.80846 C 10.55 g/m*3 14.81 C 10.27647 km/h
42 10-11-2015 00:00:00 13.07951 C 9.59 g/m*3 13.08 C 12.67535 km/h
43 11-11-2015 00:00:00 11.7066 C 8.85 g/m*3 11.71 C 6.13819 km/h
44 12-11-2015 00:00:00 11.71562 C 9.17 g/m*3 11.72 C 3.59722 km/h
45 13-11-2015 00:00:00 10.51875 C 8.58 g/m*3 9.76 C 7.30035 km/h
46 14-11-2015 00:00:00 8.91806 C 7.32 g/m*3 6.93 C 12.46215 km/h
47 15-11-2015 00:00:00 12.53854 C 9.28 g/m*3 12.54 C 18.02743 km/h
48 16-11-2015 00:00:00 11.63438 C 8.73 g/m*3 11.63 C 10.97813 km/h
49 17-11-2015 00:00:00 14.03889 C 10.8 g/m*3 14.04 C 13.5 km/h
50 18-11-2015 00:00:00 13.87604 C 8.79 g/m*3 13.88 C 17.09375 km/h
Sensor: Nr:Datum:Temp:Abs-Feuchte:Windchill:Wind:
Aussen-T/F 51 19-11-2015 00:00:00 12.23611 C 9.29 g/m*3 12.24 C 10.3066 km/h
52 20-11-2015 00:00:00 7.64444 C 7.65 g/m*3 7.64 C 3.58889 km/h
53 21-11-2015 00:00:00 3.88021 C 5.76 g/m*3 3.88 C 4.17569 km/h
54 22-11-2015 00:00:00 2.85139 C 5.37 g/m*3 1.4 C 5.60278 km/h
55 23-11-2015 00:00:00 2.48125 C 5.27 g/m*3 2.48 C 3.1934 km/h
56 24-11-2015 00:00:00 1.88785 C 4.96 g/m*3 1.89 C 4.01563 km/h
57 25-11-2015 00:00:00 4.63646 C 6.08 g/m*3 2.98 C 7.02708 km/h
58 26-11-2015 00:00:00 4.92257 C 6.25 g/m*3 4.92 C 2.59896 km/h
59 27-11-2015 00:00:00 2.23299 C 5.35 g/m*3 2.23 C 2.08993 km/h
60 28-11-2015 00:00:00 4.42821 C 5.6 g/m*3 1.91 C 10.29393 km/h
61 29-11-2015 00:00:00 9.10451 C 7.64 g/m*3 6.08 C 21.68403 km/h
62 30-11-2015 00:00:00 9.89514 C 8.43 g/m*3 7.74 C 15.40035 km/h
63 01-12-2015 00:00:00 11.24618 C 9.4 g/m*3 11.25 C 10.56458 km/h
64 02-12-2015 00:00:00 9.85729 C 8.19 g/m*3 9.86 C 1.80208 km/h
65 03-12-2015 00:00:00 7.55664 C 6.94 g/m*3 7.56 C 1.60629 km/h
66 04-12-2015 00:00:00 6.93333 C 7.06 g/m*3 5.75 C 6.68646 km/h
67 05-12-2015 00:00:00 6.05903 C 6.54 g/m*3 4.49 C 7.55139 km/h
68 06-12-2015 00:00:00 8.44861 C 7.39 g/m*3 7.28 C 7.59097 km/h
69 07-12-2015 00:00:00 8.35868 C 7.84 g/m*3 8.36 C 1.87917 km/h
70 08-12-2015 00:00:00 4.51007 C 6.4 g/m*3 4.51 C 0.85 km/h
71 09-12-2015 00:00:00 6.58229 C 7.14 g/m*3 6.58 C 3.36493 km/h
72 10-12-2015 00:00:00 3.22882 C 5.65 g/m*3 3.23 C 2.40347 km/h
73 11-12-2015 00:00:00 4.75451 C 6.18 g/m*3 2.45 C 9.61979 km/h
74 12-12-2015 00:00:00 8.05903 C 7.91 g/m*3 7.48 C 5.2125 km/h
75 13-12-2015 00:00:00 8.6316 C 7.83 g/m*3 7.23 C 8.80417 km/h
Sensor: Nr:Datum:Temp:Abs-Feuchte:Windchill:Wind:
Aussen-T/F 76 14-12-2015 00:00:00 5.9875 C 7 g/m*3 5.99 C 1.04549 km/h
77 15-12-2015 00:00:00 5.6816 C 6.84 g/m*3 5.68 C 1.11667 km/h
78 16-12-2015 00:00:00 9.66146 C 8.96 g/m*3 9.66 C 2.47604 km/h
79 17-12-2015 00:00:00 12.51647 C 10.36 g/m*3 12.52 C 4.37059 km/h
80 18-12-2015 00:00:00 11.17396 C 9.5 g/m*3 11.17 C 2.91597 km/h
81 19-12-2015 00:00:00 11.26667 C 9.34 g/m*3 11.27 C 3.77917 km/h
82 20-12-2015 00:00:00 7.84687 C 7.9 g/m*3 7.85 C 1.09028 km/h
83 21-12-2015 00:00:00 10.07014 C 8.31 g/m*3 8.46 C 11.56111 km/h
84 22-12-2015 00:00:00 11.62281 C 8.59 g/m*3 11.62 C 13.49167 km/h
85 23-12-2015 00:00:00 10.964 C 8.09 g/m*3 9.44 C 12.34 km/h
86 24-12-2015 00:00:00 11.76867 C 8.94 g/m*3 11.77 C 4.42651 km/h
87 25-12-2015 00:00:00 11.08646 C 8.85 g/m*3 11.09 C 7.30069 km/h
88 26-12-2015 00:00:00 10.37257 C 8.43 g/m*3 10.37 C 4.32431 km/h
89 27-12-2015 00:00:00 7.5375 C 7.44 g/m*3 7.54 C 3.68646 km/h
90 28-12-2015 00:00:00 2.6941 C 5.65 g/m*3 2.69 C 0.47778 km/h
91 29-12-2015 00:00:00 3.10521 C 5.85 g/m*3 3.11 C 0.46667 km/h
92 30-12-2015 00:00:00 4.88299 C 6.33 g/m*3 4.88 C 2.96042 km/h
93 31-12-2015 00:00:00 5.0934 C 6.36 g/m*3 5.09 C 3.2441 km/h
94 01-01-2016 00:00:00 4.17222 C 6.15 g/m*3 4.17 C 1.30278 km/h
95 02-01-2016 00:00:00 4.50451 C 6.16 g/m*3 4.5 C 1.85208 km/h
96 03-01-2016 00:00:00 5.64826 C 6.55 g/m*3 5.65 C 3.79965 km/h
97 04-01-2016 00:00:00 5.3184 C 6.56 g/m*3 5.32 C 3.03924 km/h
98 05-01-2016 00:00:00 6.45694 C 6.85 g/m*3 6.46 C 1.4566 km/h
99 06-01-2016 00:00:00 5.95903 C 6.83 g/m*3 5.96 C 0.60556 km/h
100 07-01-2016 00:00:00 5.04028 C 6.41 g/m*3 3.91 C 5.5941 km/h
Sensor: Nr:Datum:Temp:Abs-Feuchte:Windchill:Wind:
Aussen-T/F 101 08-01-2016 00:00:00 3.28646 C 5.5 g/m*3 1.43 C 6.97708 km/h
102 09-01-2016 00:00:00 1.12292 C 5.09 g/m*3 1.12 C 1.22847 km/h
103 10-01-2016 00:00:00 6.27708 C 6.79 g/m*3 6.28 C 3.98229 km/h
104 11-01-2016 00:00:00 5.25729 C 6.54 g/m*3 5.26 C 4.40035 km/h
105 12-01-2016 00:00:00 5.58229 C 6.27 g/m*3 3.62 C 8.79861 km/h
106 13-01-2016 00:00:00 4.93333 C 6.09 g/m*3 2.17 C 12.0125 km/h
107 14-01-2016 00:00:00 3.31701 C 5.42 g/m*3 1.94 C 5.59792 km/h
108 15-01-2016 00:00:00 2.89062 C 5.35 g/m*3 0.27 C 9.44896 km/h
109 16-01-2016 00:00:00 2.0875 C 5.08 g/m*3 0.14 C 6.65208 km/h
110 17-01-2016 00:00:00 0.26424 C 4.14 g/m*3 -1.76 C 6.09167 km/h
111 18-01-2016 00:00:00 -4.85799 C 3.12 g/m*3 -4.86 C 0.90556 km/h
112 19-01-2016 00:00:00 -5.27882 C 2.99 g/m*3 -5.28 C 1.33924 km/h
113 20-01-2016 00:00:00 -1.61806 C 3.96 g/m*3 -1.62 C 1.96979 km/h
114 21-01-2016 00:00:00 0.6684 C 4.72 g/m*3 0.67 C 0.78333 km/h
115 22-01-2016 00:00:00 -2.10729 C 3.85 g/m*3 -2.11 C 1.59896 km/h
116 23-01-2016 00:00:00 4.1559 C 6.09 g/m*3 2.93 C 5.5125 km/h
117 24-01-2016 00:00:00 5.37396 C 6.53 g/m*3 5.37 C 3.36563 km/h
118 25-01-2016 00:00:00 7.51076 C 7.47 g/m*3 7.51 C 4.75208 km/h
119 26-01-2016 00:00:00 9.35729 C 7.71 g/m*3 8.04 C 9.04132 km/h
120 27-01-2016 00:00:00 11.44792 C 7.26 g/m*3 11.45 C 16.6875 km/h
121 28-01-2016 00:00:00 7.3625 C 6.82 g/m*3 6.72 C 5.12465 km/h
122 29-01-2016 00:00:00 5.64583 C 6.1 g/m*3 3.49 C 9.70278 km/h
123 30-01-2016 00:00:00 7.42914 C 6.92 g/m*3 4.54 C 16.56115 km/h
124 31-01-2016 00:00:00 6.31944 C 6.62 g/m*3 4.36 C 9.38715 km/h
125 01-02-2016 00:00:00 11.92326 C 8.95 g/m*3 11.92 C 14.6375 km/h
Sensor: Nr:Datum:Temp:Abs-Feuchte:Windchill:Wind:
Aussen-T/F 126 02-02-2016 00:00:00 10.40035 C 8.35 g/m*3 8.45 C 14.65347 km/h
127 03-02-2016 00:00:00 5.14306 C 5.84 g/m*3 3.59 C 6.96458 km/h
128 04-02-2016 00:00:00 4.62118 C 6.01 g/m*3 2.49 C 8.79722 km/h
129 05-02-2016 00:00:00 7.46076 C 7.29 g/m*3 7.46 C 4.875 km/h
130 06-02-2016 00:00:00 8.36806 C 7.32 g/m*3 8.37 C 3.02396 km/h
131 07-02-2016 00:00:00 9.22743 C 6.87 g/m*3 7.72 C 9.9434 km/h
132 08-02-2016 00:00:00 8.09062 C 6.69 g/m*3 5.43 C 15.98715 km/h
133 09-02-2016 00:00:00 7.11076 C 6.71 g/m*3 4.82 C 11.93611 km/h
134 10-02-2016 00:00:00 4.86562 C 5.73 g/m*3 1.99 C 12.54861 km/h
135 11-02-2016 00:00:00 4.89444 C 5.89 g/m*3 3.44 C 6.51493 km/h
136 12-02-2016 00:00:00 3.0316 C 5.12 g/m*3 3.03 C 3.83229 km/h
137 13-02-2016 00:00:00 1.57049 C 5.05 g/m*3 1.57 C 1.75382 km/h
138 14-02-2016 00:00:00 4.64965 C 6.31 g/m*3 4.65 C 1.65833 km/h
139 15-02-2016 00:00:00 2.20278 C 5.17 g/m*3 0.18 C 6.92604 km/h
140 16-02-2016 00:00:00 0.19792 C 4 g/m*3 0.2 C 4.80347 km/h
141 17-02-2016 00:00:00 0.40625 C 4.42 g/m*3 0.41 C 1.11354 km/h
142 18-02-2016 00:00:00 2.11285 C 4.78 g/m*3 2.11 C 1.88403 km/h
143 19-02-2016 00:00:00 1.43507 C 4.94 g/m*3 1.44 C 1.79132 km/h
144 20-02-2016 00:00:00 6.41528 C 6.88 g/m*3 4.34 C 10.04688 km/h
145 21-02-2016 00:00:00 11.8375 C 9.29 g/m*3 11.84 C 19.7559 km/h
146 22-02-2016 00:00:00 9.57778 C 7.79 g/m*3 6.94 C 19.04375 km/h
147 23-02-2016 00:00:00 2.26424 C 5.42 g/m*3 2.26 C 2.19931 km/h
148 24-02-2016 00:00:00 2.15243 C 5.12 g/m*3 2.15 C 2.99653 km/h
149 25-02-2016 00:00:00 0.66597 C 4.58 g/m*3 0.67 C 1.97604 km/h
150 26-02-2016 00:00:00 2.36771 C 4.87 g/m*3 2.37 C 1.93194 km/h
Sensor: Nr:Datum:Temp:Abs-Feuchte:Windchill:Wind:
Aussen-T/F 151 27-02-2016 00:00:00 2.35694 C 4.4 g/m*3 2.36 C 4.01389 km/h
152 28-02-2016 00:00:00 2.12509 C 4.34 g/m*3 0.51 C 5.752 km/h
153 29-02-2016 00:00:00 3.32569 C 4.3 g/m*3 1.03 C 8.49444 km/h
154 01-03-2016 00:00:00 1.1875 C 4.3 g/m*3 1.19 C 4.82743 km/h
155 02-03-2016 00:00:00 6.5125 C 6.26 g/m*3 4.97 C 7.76389 km/h
156 03-03-2016 00:00:00 3.61736 C 5.39 g/m*3 3.62 C 4.92292 km/h
157 04-03-2016 00:00:00 1.76528 C 5.11 g/m*3 1.77 C 3.03507 km/h
158 05-03-2016 00:00:00 4.32153 C 5.98 g/m*3 4.32 C 3.54306 km/h
159 06-03-2016 00:00:00 3.0434 C 5.62 g/m*3 3.04 C 3.70764 km/h
160 07-03-2016 00:00:00 2.40347 C 5.35 g/m*3 2.4 C 2.66667 km/h
161 08-03-2016 00:00:00 1.75521 C 4.95 g/m*3 1.76 C 2.84097 km/h
162 09-03-2016 00:00:00 2.60799 C 4.81 g/m*3 1.23 C 5.33681 km/h
163 10-03-2016 00:00:00 2.73576 C 4.9 g/m*3 2.74 C 2.80417 km/h
164 11-03-2016 00:00:00 4.25868 C 5.4 g/m*3 4.26 C 2.82014 km/h
165 12-03-2016 00:00:00 4.36424 C 5.09 g/m*3 3.26 C 5.26736 km/h
166 13-03-2016 00:00:00 5.06944 C 5.28 g/m*3 3.37 C 7.41285 km/h
167 14-03-2016 00:00:00 4.20451 C 4.58 g/m*3 2.54 C 6.83576 km/h
168 15-03-2016 00:00:00 3.53264 C 4.97 g/m*3 3.53 C 2.67674 km/h
169 16-03-2016 00:00:00 4.7066 C 4.87 g/m*3 2.57 C 8.85417 km/h
170 17-03-2016 00:00:00 4.57049 C 4.96 g/m*3 4.57 C 3.32569 km/h
171 18-03-2016 00:00:00 3.8934 C 5.25 g/m*3 2.71 C 5.29132 km/h
172 19-03-2016 00:00:00 5.67465 C 6.19 g/m*3 5.67 C 4.12708 km/h
173 20-03-2016 00:00:00 5.89583 C 5.84 g/m*3 5.9 C 4.43819 km/h
174 21-03-2016 00:00:00 7.0625 C 6.6 g/m*3 7.06 C 4.04618 km/h
175 22-03-2016 00:00:00 8.10035 C 6.63 g/m*3 7.32 C 5.88576 km/h
Sensor: Nr:Datum:Temp:Abs-Feuchte:Windchill:Wind:
Aussen-T/F 176 23-03-2016 00:00:00 7.93438 C 6.74 g/m*3 7.08 C 6.075 km/h
177 24-03-2016 00:00:00 7.05069 C 6.68 g/m*3 7.05 C 3.08299 km/h
178 25-03-2016 00:00:00 6.93125 C 7.14 g/m*3 6.19 C 5.24757 km/h
179 26-03-2016 00:00:00 9.02778 C 7.29 g/m*3 9.03 C 4.58472 km/h
180 27-03-2016 00:00:00 9.36558 C 7.41 g/m*3 8.35 C 7.60652 km/h
181 28-03-2016 00:00:00 8.24167 C 7.09 g/m*3 7.12 C 7.24271 km/h
182 29-03-2016 00:00:00 9.19792 C 6.63 g/m*3 7.33 C 12.05243 km/h
183 30-03-2016 00:00:00 9.98958 C 7.96 g/m*3 9.4 C 6.21979 km/h
184 31-03-2016 00:00:00 7.10243 C 7.23 g/m*3 7.1 C 3.58125 km/h
185 01-04-2016 00:00:00 7.02396 C 6.6 g/m*3 7.02 C 4.7941 km/h
186 02-04-2016 00:00:00 8.56007 C 7.31 g/m*3 8.56 C 3.34965 km/h
187 03-04-2016 00:00:00 13.56285 C 9.55 g/m*3 13.56 C 3.94826 km/h
188 04-04-2016 00:00:00 13.63299 C 9.65 g/m*3 13.63 C 4.78125 km/h
189 05-04-2016 00:00:00 11.25069 C 9.41 g/m*3 11.25 C 2.32188 km/h
190 06-04-2016 00:00:00 10.87153 C 7.88 g/m*3 9.61 C 10.36528 km/h
191 07-04-2016 00:00:00 8.49479 C 6.46 g/m*3 7.22 C 8.07847 km/h
192 08-04-2016 00:00:00 6.48403 C 5.96 g/m*3 6.48 C 4.08576 km/h
193 09-04-2016 00:00:00 8.00139 C 5.98 g/m*3 8 C 3.26736 km/h
194 10-04-2016 00:00:00 11.74757 C 7.34 g/m*3 11.75 C 5.60764 km/h
195 11-04-2016 00:00:00 12.00972 C 7.52 g/m*3 12.01 C 6.07257 km/h
196 12-04-2016 00:00:00 11.31181 C 8.06 g/m*3 11.31 C 2.89931 km/h
197 13-04-2016 00:00:00 8.81354 C 8.18 g/m*3 8.81 C 1.54549 km/h
198 14-04-2016 00:00:00 10.59722 C 7.87 g/m*3 10.6 C 3.04132 km/h
199 15-04-2016 00:00:00 13.04618 C 8.43 g/m*3 13.05 C 8.64861 km/h
200 16-04-2016 00:00:00 11.99514 C 8.68 g/m*3 12 C 5.71181 km/h
Sensor: Nr:Datum:Temp:Abs-Feuchte:Windchill:Wind:
Aussen-T/F 201 17-04-2016 00:00:00 8.41111 C 6.55 g/m*3 7.51 C 6.47222 km/h
202 18-04-2016 00:00:00 7.11632 C 5.83 g/m*3 7.12 C 3.50174 km/h
203 19-04-2016 00:00:00 8.83507 C 6.34 g/m*3 8.06 C 6.28056 km/h
204 20-04-2016 00:00:00 9.1559 C 5.92 g/m*3 9.16 C 4.81944 km/h
205 21-04-2016 00:00:00 11.43229 C 6.61 g/m*3 11.43 C 3.48229 km/h
206 22-04-2016 00:00:00 13.17674 C 7.13 g/m*3 13.18 C 4.56215 km/h
207 23-04-2016 00:00:00 7.88299 C 6.42 g/m*3 6.72 C 7.17014 km/h
208 24-04-2016 00:00:00 5.24444 C 5.42 g/m*3 3.81 C 6.62014 km/h
209 25-04-2016 00:00:00 4.71632 C 5.73 g/m*3 2.48 C 9.30625 km/h
210 26-04-2016 00:00:00 4.5934 C 5.49 g/m*3 2.37 C 9.12188 km/h
211 27-04-2016 00:00:00 5.57465 C 5.53 g/m*3 2.62 C 13.95313 km/h
212 28-04-2016 00:00:00 6.65 C 5.38 g/m*3 5.16 C 7.65451 km/h
213 29-04-2016 00:00:00 7.88056 C 5.67 g/m*3 7.28 C 5.22118 km/h
214 30-04-2016 00:00:00 7.70174 C 6.76 g/m*3 7.7 C 4.92257 km/h
215 01-05-2016 00:00:00 10.10486 C 7.71 g/m*3 9.02 C 8.56563 km/h
216 02-05-2016 00:00:00 12.06389 C 7.84 g/m*3 12.06 C 3.13125 km/h
217 03-05-2016 00:00:00 10.93785 C 7.55 g/m*3 10.54 C 6.03889 km/h
218 04-05-2016 00:00:00 9.10035 C 6.07 g/m*3 9.1 C 3.39722 km/h
219 05-05-2016 00:00:00 11.45347 C 6.94 g/m*3 11.45 C 5.61111 km/h
220 06-05-2016 00:00:00 15.34618 C 8.99 g/m*3 15.35 C 3.5191 km/h
221 07-05-2016 00:00:00 16.83542 C 9.35 g/m*3 16.84 C 3.77639 km/h
222 08-05-2016 00:00:00 18.59861 C 8.36 g/m*3 18.6 C 6.17118 km/h
223 09-05-2016 00:00:00 18.28715 C 9.64 g/m*3 18.29 C 4.85347 km/h
224 10-05-2016 00:00:00 17.08646 C 11.29 g/m*3 17.09 C 2.05694 km/h
225 11-05-2016 00:00:00 17.43438 C 11.28 g/m*3 17.43 C 3.74167 km/h
Sensor: Nr:Datum:Temp:Abs-Feuchte:Windchill:Wind:
Aussen-T/F 226 12-05-2016 00:00:00 17.84271 C 10.63 g/m*3 17.84 C 3.61076 km/h
227 13-05-2016 00:00:00 14.31736 C 11.02 g/m*3 14.32 C 1.31528 km/h
228 14-05-2016 00:00:00 10.45972 C 6.96 g/m*3 9.24 C 9.66181 km/h
229 15-05-2016 00:00:00 9.07743 C 6.2 g/m*3 7.84 C 8.38542 km/h
230 16-05-2016 00:00:00 9.98819 C 6.62 g/m*3 9.74 C 5.00868 km/h
231 17-05-2016 00:00:00 12.31563 C 7.5 g/m*3 12.32 C 4.92674 km/h
232 18-05-2016 00:00:00 14.47535 C 9.2 g/m*3 14.48 C 2.50486 km/h
233 19-05-2016 00:00:00 14.04722 C 9.15 g/m*3 14.05 C 3.41319 km/h
234 20-05-2016 00:00:00 14.08125 C 9.66 g/m*3 14.08 C 6.56632 km/h
235 21-05-2016 00:00:00 17.67708 C 11.23 g/m*3 17.68 C 3.4191 km/h
236 22-05-2016 00:00:00 18.70312 C 11.68 g/m*3 18.7 C 4.71528 km/h
237 23-05-2016 00:00:00 14.01632 C 10.05 g/m*3 14.02 C 8.33854 km/h
238 24-05-2016 00:00:00 10.97431 C 9.13 g/m*3 10.54 C 6.22292 km/h
239 25-05-2016 00:00:00 12.7125 C 9.75 g/m*3 12.71 C 1.23403 km/h
240 26-05-2016 00:00:00 14.89826 C 10.33 g/m*3 14.9 C 2.10938 km/h
241 27-05-2016 00:00:00 16.77849 C 12.94 g/m*3 16.78 C 2.11235 km/h
242 28-05-2016 00:00:00 18.08383 C 13.72 g/m*3 18.08 C 1.43892 km/h
243 29-05-2016 00:00:00 17.36528 C 13.25 g/m*3 17.37 C 1.68576 km/h
244 30-05-2016 00:00:00 17.49722 C 13.9 g/m*3 17.5 C 3.48194 km/h
245 31-05-2016 00:00:00 16.51458 C 12.3 g/m*3 16.51 C 2.34271 km/h
246 01-06-2016 00:00:00 15.69931 C 12.67 g/m*3 15.7 C 1.12917 km/h
247 02-06-2016 00:00:00 17.51979 C 13.73 g/m*3 17.52 C 1.64792 km/h
248 03-06-2016 00:00:00 16.76875 C 13.51 g/m*3 16.77 C 0.8066 km/h
249 04-06-2016 00:00:00 17.85104 C 13.83 g/m*3 17.85 C 1.83611 km/h
250 05-06-2016 00:00:00 19.18611 C 14.67 g/m*3 19.19 C 2.33264 km/h
Sensor: Nr:Datum:Temp:Abs-Feuchte:Windchill:Wind:
Aussen-T/F 251 06-06-2016 00:00:00 19.18785 C 14.33 g/m*3 19.19 C 1.64375 km/h
252 07-06-2016 00:00:00 19.88403 C 14.1 g/m*3 19.88 C 1.38819 km/h
253 08-06-2016 00:00:00 19.56354 C 13.01 g/m*3 19.56 C 5.36771 km/h
254 09-06-2016 00:00:00 17.3191 C 10.55 g/m*3 17.32 C 7.32188 km/h
255 10-06-2016 00:00:00 16.15521 C 9.83 g/m*3 16.16 C 3.07674 km/h
256 11-06-2016 00:00:00 17.56701 C 11.15 g/m*3 17.57 C 1.75139 km/h
257 12-06-2016 00:00:00 17.18299 C 12.73 g/m*3 17.18 C 2.86944 km/h
258 13-06-2016 00:00:00 15.94479 C 12.88 g/m*3 15.94 C 2.57049 km/h
259 14-06-2016 00:00:00 16.36597 C 12.24 g/m*3 16.37 C 4.14965 km/h
260 15-06-2016 00:00:00 15.42431 C 11.44 g/m*3 15.42 C 2.73958 km/h
261 16-06-2016 00:00:00 13.77292 C 11.13 g/m*3 13.77 C 1.25069 km/h
262 17-06-2016 00:00:00 14.68889 C 11.42 g/m*3 14.69 C 4.26632 km/h
263 18-06-2016 00:00:00 14.84861 C 11.11 g/m*3 14.85 C 5.13299 km/h
264 19-06-2016 00:00:00 15.40278 C 9.98 g/m*3 15.4 C 5.27639 km/h
265 20-06-2016 00:00:00 14.61979 C 10.26 g/m*3 14.62 C 4.06076 km/h
266 21-06-2016 00:00:00 18.21736 C 13.77 g/m*3 18.22 C 4.22604 km/h
267 22-06-2016 00:00:00 20.84792 C 15.95 g/m*3 20.85 C 1.36458 km/h
268 23-06-2016 00:00:00 23.76528 C 17.5 g/m*3 23.77 C 2.17743 km/h
269 24-06-2016 00:00:00 22.11979 C 17.68 g/m*3 22.12 C 1.67535 km/h
270 25-06-2016 00:00:00 16.85451 C 13.76 g/m*3 16.85 C 2.71215 km/h
271 26-06-2016 00:00:00 15.41562 C 11.23 g/m*3 15.42 C 5.33646 km/h
272 27-06-2016 00:00:00 15.91562 C 11.76 g/m*3 15.92 C 6.02951 km/h
273 28-06-2016 00:00:00 18.26597 C 13.16 g/m*3 18.27 C 2.94618 km/h
274 29-06-2016 00:00:00 19.04444 C 12.18 g/m*3 19.04 C 5.90799 km/h
275 30-06-2016 00:00:00 18.7566 C 12.98 g/m*3 18.76 C 4.27639 km/h
Sensor: Nr:Datum:Temp:Abs-Feuchte:Windchill:Wind:
Aussen-T/F 276 01-07-2016 00:00:00 19.88194 C 13.91 g/m*3 19.88 C 5.11597 km/h
277 02-07-2016 00:00:00 16.90868 C 11.32 g/m*3 16.91 C 5.75972 km/h
278 03-07-2016 00:00:00 15.21559 C 10.85 g/m*3 15.22 C 3.62129 km/h
279 04-07-2016 00:00:00 17.43333 C 12.31 g/m*3 17.43 C 2.40035 km/h
280 05-07-2016 00:00:00 19.40903 C 13.05 g/m*3 19.41 C 6.85694 km/h
281 06-07-2016 00:00:00 16.61042 C 10.46 g/m*3 16.61 C 3.5809 km/h
282 07-07-2016 00:00:00 17.08576 C 11.33 g/m*3 17.09 C 1.45799 km/h
283 08-07-2016 00:00:00 18.87222 C 13.06 g/m*3 18.87 C 2.11215 km/h
284 09-07-2016 00:00:00 21.08889 C 14.05 g/m*3 21.09 C 2.50556 km/h
285 10-07-2016 00:00:00 21.92535 C 15.31 g/m*3 21.93 C 2.22326 km/h
286 11-07-2016 00:00:00 21.61701 C 14 g/m*3 21.62 C 5.9316 km/h
287 12-07-2016 00:00:00 19.06354 C 12.22 g/m*3 19.06 C 4.50729 km/h
288 13-07-2016 00:00:00 14.71319 C 11.51 g/m*3 14.71 C 1.97951 km/h
289 14-07-2016 00:00:00 14.94583 C 10.15 g/m*3 14.95 C 5.28056 km/h
290 15-07-2016 00:00:00 16.08229 C 10.14 g/m*3 16.08 C 4.43993 km/h
291 16-07-2016 00:00:00 16.98542 C 12.01 g/m*3 16.99 C 1.86806 km/h
292 17-07-2016 00:00:00 21.34757 C 15.03 g/m*3 21.35 C 3.00486 km/h
293 18-07-2016 00:00:00 21.85069 C 14.51 g/m*3 21.85 C 2.12431 km/h
294 19-07-2016 00:00:00 21.61667 C 14.84 g/m*3 21.62 C 0.9684 km/h
295 20-07-2016 00:00:00 23.34097 C 15.69 g/m*3 23.34 C 1.97986 km/h
296 21-07-2016 00:00:00 21.23924 C 16.1 g/m*3 21.24 C 2.89375 km/h
297 22-07-2016 00:00:00 20.96806 C 16.23 g/m*3 20.97 C 1.53993 km/h
298 23-07-2016 00:00:00 20.3434 C 16.14 g/m*3 20.34 C 1.57465 km/h
299 24-07-2016 00:00:00 22.0941 C 16.68 g/m*3 22.09 C 2.27569 km/h
300 25-07-2016 00:00:00 21.8191 C 15.69 g/m*3 21.82 C 2.61076 km/h
Sensor: Nr:Datum:Temp:Abs-Feuchte:Windchill:Wind:
Aussen-T/F 301 26-07-2016 00:00:00 20.20208 C 15.1 g/m*3 20.2 C 2.69201 km/h
302 27-07-2016 00:00:00 19.62986 C 13.7 g/m*3 19.63 C 3.30104 km/h
303 28-07-2016 00:00:00 20.20174 C 14.48 g/m*3 20.2 C 2.89757 km/h
304 29-07-2016 00:00:00 19.81042 C 14.55 g/m*3 19.81 C 3.70729 km/h
305 30-07-2016 00:00:00 20.55278 C 14.05 g/m*3 20.55 C 2.95729 km/h
306 31-07-2016 00:00:00 18.14444 C 12.51 g/m*3 18.14 C 4.30451 km/h
307 01-08-2016 00:00:00 16.63958 C 11.11 g/m*3 16.64 C 1.70278 km/h
308 02-08-2016 00:00:00 16.16875 C 12.7 g/m*3 16.17 C 4.31354 km/h
309 03-08-2016 00:00:00 18.55174 C 14.93 g/m*3 18.55 C 6.0625 km/h
310 04-08-2016 00:00:00 18.01667 C 14.56 g/m*3 18.02 C 0.58958 km/h
311 05-08-2016 00:00:00 16.58403 C 12.5 g/m*3 16.58 C 2.53715 km/h
312 06-08-2016 00:00:00 17.59097 C 12.95 g/m*3 17.59 C 1.78924 km/h
313 07-08-2016 00:00:00 18.92153 C 13.21 g/m*3 18.92 C 2.58958 km/h
314 08-08-2016 00:00:00 19.25521 C 12.85 g/m*3 19.26 C 5.84826 km/h
315 09-08-2016 00:00:00 16.42986 C 10.1 g/m*3 16.43 C 4.77396 km/h
316 10-08-2016 00:00:00 13.02465 C 9.09 g/m*3 13.02 C 4.35625 km/h
317 11-08-2016 00:00:00 12.3 C 9.07 g/m*3 12.3 C 5.73854 km/h
318 12-08-2016 00:00:00 17.31701 C 13.39 g/m*3 17.32 C 4.90347 km/h
319 13-08-2016 00:00:00 20.62604 C 14.05 g/m*3 20.63 C 3.9 km/h
320 14-08-2016 00:00:00 19.08924 C 13.19 g/m*3 19.09 C 2.6816 km/h
321 15-08-2016 00:00:00 18.95451 C 12.68 g/m*3 18.95 C 3.03299 km/h
322 16-08-2016 00:00:00 18.07778 C 11.6 g/m*3 18.08 C 2.27361 km/h
323 17-08-2016 00:00:00 18.14653 C 11.37 g/m*3 18.15 C 2.66528 km/h
324 18-08-2016 00:00:00 17.22743 C 12.05 g/m*3 17.23 C 0.74688 km/h
325 19-08-2016 00:00:00 19.36181 C 13.9 g/m*3 19.36 C 2.4625 km/h
Sensor: Nr:Datum:Temp:Abs-Feuchte:Windchill:Wind:
Aussen-T/F 326 20-08-2016 00:00:00 18.84757 C 13.43 g/m*3 18.85 C 2.42188 km/h
327 21-08-2016 00:00:00 17.07361 C 11.68 g/m*3 17.07 C 7.83993 km/h
328 22-08-2016 00:00:00 17.30799 C 12.39 g/m*3 17.31 C 3.70174 km/h
329 23-08-2016 00:00:00 19.09167 C 12.74 g/m*3 19.09 C 1.35799 km/h
330 24-08-2016 00:00:00 20.54583 C 13.8 g/m*3 20.55 C 1.6559 km/h
331 25-08-2016 00:00:00 21.59896 C 14.45 g/m*3 21.6 C 1.6125 km/h
332 26-08-2016 00:00:00 22.53715 C 15.38 g/m*3 22.54 C 0.78472 km/h
333 27-08-2016 00:00:00 23.96528 C 17.1 g/m*3 23.97 C 0.79618 km/h
334 28-08-2016 00:00:00 23.4684 C 15.21 g/m*3 23.47 C 5.46597 km/h
335 29-08-2016 00:00:00 18.98993 C 12.9 g/m*3 18.99 C 3.00486 km/h
336 30-08-2016 00:00:00 18.11736 C 11.72 g/m*3 18.12 C 2.57639 km/h
337 31-08-2016 00:00:00 17.84514 C 11.8 g/m*3 17.85 C 0.65625 km/h
338 01-09-2016 00:00:00 19.62431 C 12.79 g/m*3 19.62 C 2.53993 km/h
339 02-09-2016 00:00:00 18.78785 C 12.67 g/m*3 18.79 C 1.46806 km/h
340 03-09-2016 00:00:00 20.71944 C 13.27 g/m*3 20.72 C 2.49201 km/h
341 04-09-2016 00:00:00 18.18681 C 12.69 g/m*3 18.19 C 7.97361 km/h
342 05-09-2016 00:00:00 17.73715 C 11.99 g/m*3 17.74 C 4.46667 km/h
343 06-09-2016 00:00:00 16.62882 C 11.62 g/m*3 16.63 C 1.43576 km/h
344 07-09-2016 00:00:00 17.39792 C 11.9 g/m*3 17.4 C 1.70382 km/h
345 08-09-2016 00:00:00 19.44722 C 13.34 g/m*3 19.45 C 2.21597 km/h
346 09-09-2016 00:00:00 20.12222 C 12.28 g/m*3 20.12 C 2.89306 km/h
347 10-09-2016 00:00:00 19.21944 C 13.38 g/m*3 19.22 C 0.42222 km/h
348 11-09-2016 00:00:00 18.8684 C 12.37 g/m*3 18.87 C 1.37778 km/h
349 12-09-2016 00:00:00 19.58437 C 13.34 g/m*3 19.58 C 1.25278 km/h
350 13-09-2016 00:00:00 21.20937 C 14.42 g/m*3 21.21 C 1.18785 km/h
Sensor: Nr:Datum:Temp:Abs-Feuchte:Windchill:Wind:
Aussen-T/F 351 14-09-2016 00:00:00 20.91319 C 13.56 g/m*3 20.91 C 1.53472 km/h
352 15-09-2016 00:00:00 20.02847 C 13.21 g/m*3 20.03 C 4.13264 km/h
353 16-09-2016 00:00:00 17.33889 C 12.64 g/m*3 17.34 C 2.82431 km/h
354 17-09-2016 00:00:00 15.96146 C 11.56 g/m*3 15.96 C 2.91424 km/h
355 18-09-2016 00:00:00 17.13993 C 13.13 g/m*3 17.14 C 4.16354 km/h
356 19-09-2016 00:00:00 15.49201 C 11.16 g/m*3 15.49 C 2.20799 km/h
357 20-09-2016 00:00:00 14.8184 C 11.22 g/m*3 14.82 C 0.8 km/h
358 21-09-2016 00:00:00 13.86563 C 9.39 g/m*3 13.87 C 1.70347 km/h
359 22-09-2016 00:00:00 11.70625 C 8.86 g/m*3 11.71 C 0.63576 km/h
360 23-09-2016 00:00:00 13.62518 C 10.21 g/m*3 13.63 C 0.01702 km/h
361 24-09-2016 00:00:00 13.82326 C 10.17 g/m*3 13.82 C 0.84097 km/h
362 25-09-2016 00:00:00 14.39201 C 10.56 g/m*3 14.39 C 1.67674 km/h
363 26-09-2016 00:00:00 14.99062 C 11.03 g/m*3 14.99 C 0.40139 km/h
364 27-09-2016 00:00:00 13.42847 C 10.86 g/m*3 13.43 C 0.12222 km/h
365 28-09-2016 00:00:00 15.2816 C 11.17 g/m*3 15.28 C 4.6566 km/h
366 29-09-2016 00:00:00 18.69375 C 12.7 g/m*3 18.69 C 5.92396 km/h

Maximal/Minimal-Werte vom 30.09.2015 - 29.09.2016

Sensor Min Max Avg
Temp
(Aussen-T/F)
-7.7 °C
20-01-2016  00:35:00
35.4 °C
20-07-2016  17:10:00
11.39 °C
Abs-Feuchte
(Aussen-T/F)
2.99 g/m*3
19-01-2016  00:00:00
17.68 g/m*3
24-06-2016  00:00:00
9.11 g/m*3
Windchill
(Aussen-T/F)
-5.28 C
19-01-2016  00:00:00
23.97 C
27-08-2016  00:00:00
11.05 C

Die Daten stammen von einer Davis Vantage Pro 2 Wetter-Station und werden unter Linux mit der Software wview2wettercgi und aufbereitet. Alle Angaben erfolgen ohne Gewähr für ihre Vollständigkeit oder Richtigkeit.
Kontakt: Rainer Krienke krienke@uni-koblenz.de . Meine Webseiten an der Uni Koblenz oder privat.
Version: $Revision: 0.78 $